Other Public Products
Issued by NWS Grand Forks, ND

Home | Current Version | Previous Version | Graphics & Text | Print | Product List | Glossary On
Versions: 1 2 3 4 5 6 7 8 9 10 11 12 13 14 15 16 17 18 19 20 21 22 23 24 25 26 27 28 29 30 31 32 33 34 35 36 37 38 39 40 41 42 43 44 45 46 47 48 49 50
000
FPUS83 KFGF 270931
OPUFGF
PRAIRIE TO PINES WEATHER ROUNDUP
NATIONAL WEATHER SERVICE EASTERN NORTH DAKOTA/GRAND FORKS ND
400 AM CDT MON APR 27 2015

 **SATELLITE DATA USED TO AUGMENT SKY COVER AT AUTOMATED STATIONS**
 *****  WEATHER ACROSS EASTERN NORTH DAKOTA  *****

CITY           SKY/WX    TMP DP  RH WIND       PRES   REMARKS
GRAND FORKS    PTCLDY    41  27  57 SE5       30.17R
GRAND FORKS AF MOCLDY    34  31  88 W3        30.17R
GRAND CITY NWS   N/A     37 N/A N/A SE5         N/A
BUXTON           N/A     48  27  44 CALM        N/A
DEVILS LAKE    CLOUDY    43  39  87 CALM      30.18S VSB 1/4
FARGO          PTCLDY    42  24  49 S6        30.19R
WAHPETON ARPT  SUNNY     36  23  60 SE5       30.20S
$$

 *****  WEATHER ACROSS CENTRAL AND WESTERN NORTH DAKOTA  *****

CITY           SKY/WX    TMP DP  RH WIND       PRES   REMARKS
JAMESTOWN      MOCLDY    39  30  70 CALM      30.17S
BISMARCK       CLOUDY    40  40 100 CALM      30.18S FOG
MINOT          LGT RAIN  41  38  89 NW12      30.22R
MINOT AFB      LGT RAIN  41  41 100 NW9       30.21S
GARRISON         N/A     46  43  89 N5        30.19R
WILLISTON      LGT RAIN  41  38  89 N7        30.25R
DICKINSON      LGT RAIN  42  40  92 NW12      30.19S FOG
HETTINGER      CLOUDY    43  41  93 N10       30.20R
$$

 *****  OTHER OBSERVATIONS NORTHEAST NORTH DAKOTA  *****

CITY           SKY/WX    TMP DP  RH WIND       PRES   REMARKS
WALHALLA       CLOUDY    48  48 100 SW5       30.18R
LANGDON        CLOUDY    43  41  93 W5        30.19R
CAVALIER       PTSUNNY   45  43  93 W6        30.18R FOG
GRAFTON        FAIR      37  37 100 CALM      30.18R
CANDO          CLOUDY    41  41 100 NW6       30.20S FOG
FORT TOTTEN      N/A     43  43 100 CALM      29.95S
ROLLA          CLOUDY    41  41 100 N12       30.21R
RUGBY          NOT AVBL
 ***** THE ABOVE OBSERVATIONS ARE NON NWS ARE NOT QUALITY
        CONTROLLED AND MAY MIS-REPORT RAIN FOR SNOW...
$$

 *****  OTHER OBSERVATIONS SOUTHEAST NORTH DAKOTA *****

CITY           SKY/WX    TMP DP  RH WIND       PRES   REMARKS
COOPERSTOWN    NOT AVBL
VALLEY CITY    FAIR      41  28  60 SE3       30.19R
OAKES            N/A     37  28  70 S5        30.18S
GWINNER        SUNNY     39  27  60 SW10      30.19F
BUFFALO        NOT AVBL
WYNDMERE       NOT AVBL
 ***** THE ABOVE OBSERVATIONS ARE NON NWS ARE NOT QUALITY
       CONTROLLED AND MAY MIS-REPORT RAIN FOR SNOW...
$$

  *****  WEATHER ACROSS NORTHERN MINNESOTA  *****

CITY           SKY/WX    TMP DP  RH WIND       PRES   REMARKS
FLAG ISLAND    CLEAR     39  34  81 CALM      30.19R
WARROAD        CLEAR     34  28  80 CALM      30.20R
ROSEAU         PTCLDY    36  27  69 CALM      30.19R
HALLOCK        MOCLDY    39  21  48 S5        30.17S
THF RVR FALLS  CLEAR     43  21  42 CALM      30.20R
HALSTAD          N/A     39  21  48 SW3         N/A
FOSSTON        CLEAR     30  23  74 CALM      30.20R
BAUDETTE       CLEAR     32  25  75 CALM      30.19R
WASKISH        CLEAR     28  25  86 CALM      30.20R
CROOKSTON      PTCLDY    37  23  56 S3        30.20S
$$
  *****  WEATHER ACROSS CENTRAL AND WEST MINNESOTA  *****

CITY           SKY/WX    TMP DP  RH WIND       PRES   REMARKS
BEMIDJI        CLEAR     29  22  72 CALM      30.19R
PARK RAPIDS    CLEAR     32  25  75 CALM      30.19R
WADENA         CLEAR     32  23  69 CALM      30.21R
DETROIT LAKES  CLEAR     37  30  75 CALM      30.22R
MOORHEAD       PTCLDY    37  19  48 S5        30.21R
FERGUS FALLS   CLEAR     43  21  42 CALM      30.22S
ELBOW LAKE     FAIR      43  32  63 SE3       30.20S
MORRIS MN      CLEAR     36  23  60 NE5       30.19S
STAPLES        CLEAR     28  25  86 CALM      30.21R
WHEATON        CLEAR     37  21  52 CALM      30.21F
$$
  *****  WEATHER ELSEWHERE ACROSS MINNESOTA  *****

CITY           SKY/WX    TMP DP  RH WIND       PRES   REMARKS
DULUTH         CLEAR     30  22  72 CALM      30.18R
INTRNTL FALLS  CLEAR     29  23  78 CALM      30.19R
ELY            CLEAR     27  23  86 CALM      30.19S
CLOQUET        CLEAR     27  21  80 NW3       30.19S
BRAINERD       CLEAR     28  21  75 CALM      30.21R
HIBBING        CLEAR     25  19  78 CALM      30.19R
ALEXANDRIA     CLEAR     36  30  79 CALM      30.21R
SAINT CLOUD    CLEAR     35  22  58 CALM      30.21R
MINNEAPOLIS    CLEAR     42  30  62 N5        30.20R
$$

  *****  WEATHER ACROSS SOUTH DAKOTA  *****

CITY           SKY/WX    TMP DP  RH WIND       PRES   REMARKS
SIOUX FALLS    CLEAR     36  27  69 NE6       30.16R
BROOKINGS      CLEAR     32  25  74 CALM      30.19S
WATERTOWN      CLEAR     35  25  66 CALM      30.17S
HURON          CLEAR     39  27  62 E5        30.17R
SISSETON         N/A     38  27  64 CALM      30.18S
ABERDEEN       CLEAR     35  28  75 W5        30.18S
MITCHELL       CLEAR     39  33  79 CALM      30.17R
PIERRE         PTCLDY    38  32  79 NE3       30.15R
MOBRIDGE       PTCLDY    41  33  73 N3        30.14R
RAPID CITY     CLOUDY    45  43  93 N9        30.17R
$$

  *****  SOME WEATHER IN NEARBY STATES *****

CITY           SKY/WX    TMP DP  RH WIND       PRES   REMARKS
GLASGOW MT     CLOUDY    39  36  89 W3        30.26S
GREAT FALLS MT CLEAR     30  27  88 S8        30.23R WCI  22
CHEYENNE WY    LGT SNOW  33  32  96 CALM      30.13S FOG
SCOTTSBLUFF NE CLOUDY    44 N/A N/A CALM      30.16R
OMAHA NE       PTCLDY    40  35  83 N3        30.13R
DES MOINES IA  CLEAR     42  33  70 CALM      30.11R
DAVENPORT IA   CLEAR     37  31  78 E8        30.07S
CHICAGO IL     CLEAR     39  30  70 N7        30.05F
EAU CLAIRE WI  CLEAR     37  25  61 CALM      30.17R
LA CROSSE WI   CLEAR     42  30  62 N6        30.15R
$$

  *****  SOME NATIONAL WEATHER *****

CITY           SKY/WX    TMP DP  RH WIND       PRES   REMARKS
LA GUARDIA NY  MOCLDY    49  32  52 NW9       29.66S
RALEIGH NC     PTCLDY    40  39  97 CALM      29.76F
ATLANTA GA     PTCLDY    52  47  83 NW8       29.81R
NEW ORLEANS LA CLOUDY    74  71  91 NE6       29.69R
OKLAHOMA CITY  CLOUDY    54  48  82 NE25G31   29.80R
ALBUQUERQUE NM MOCLDY    45  40  82 NW8       29.91R
SALT LAKE CITY MOCLDY    45  38  76 NW9       30.15S
LOS ANGELES CA PTCLDY    59  52  77 NE3       29.92F
BOISE ID       CLEAR     42  26  53 VRB3      30.24R
SEATTLE WA     CLOUDY    52  49  89 SW3       30.27S
$$

*** WEATHER ACROSS MANITOBA...SASKATCHEWAN AND ONTARIO ***
                ***ONTARIO***

CITY           SKY/WX    TMP DP  RH WIND       PRES   REMARKS
GERALDTON      CLEAR     28  27  93 N6        30.17S WCI  22
THUNDER BAY    CLEAR     28  27  93 W3        30.19
SIOUX LOOKOUT  PTCLDY    27  25  93 CALM      30.22R
TORONTO        LGT RAIN  41  37  87 N15       29.81R
BIG TROUT LK   CLEAR     27  25  93 E5        30.27F WCI  21
PICKLE LAKE    NOT AVBL
DRYDEN         CLEAR     34  32  93 E5        30.20S
KENORA         PTCLDY    43  25  49 SE6       30.20R
$$
                *** MANITOBA***

CITY           SKY/WX    TMP DP  RH WIND       PRES   REMARKS
BRANDON        CLOUDY    41  36  81 W7        30.20R
DAUPHIN        CLOUDY    41  34  75 W14       30.19R
ISLAND LAKE    LGT RAIN  43  28  56 SE12      30.14S
PILOT MOUND      N/A     45  39  81 NW13        N/A
THE PAS        CLOUDY    34  34 100 W14       30.11R WCI  24
THOMPSON       CLOUDY    43  28  56 E3        30.03S
WINNIPEG       MOCLDY    50  45  81 W6        30.17
GILLAM         CLOUDY    36  28  75 E6        30.17F
$$
                ***SASKATCHEWAN***

CITY           SKY/WX    TMP DP  RH WIND       PRES   REMARKS
ESTEVAN        LGT RAIN  39  36  87 W6        30.24R
KINDERSLEY     CLEAR     30  27  86 S8        30.19R WCI  23
LLOYDMINSTER   CLEAR     32  21  64 S8        30.14S WCI  25
PRINCE ALBERT  CLEAR     25  25 100 W5        30.22R WCI  19
REGINA         CLOUDY    34  34 100 W6        30.25R
YORKTON        CLOUDY    37  32  81 NW8       30.21R
N. BATTLEFORD  NOT AVBL
LA RONGE       CLOUDY    32  30  93 W9        30.21R WCI  24


USA.gov is the U.S. government's official web portal to all federal, state and local government web resources and services.